Location: Baumgarten
(49.0970°N, 12.7493°E)
Time: 17:57:44
(UTC+00:00)

Cosmos 864 Rocket - Pass Details

Date: 05 July 2020
Orbit: 953 x 991 km, 82.9° (Epoch: 13 August)

Event Time Altitude Azimuth Distance (km) Brightness Sun altitude
Exits shadow 22:51:59 29° 178° (S) 1,695 5.2 -18.1°
Maximum altitude 22:55:21 78° 96° (E) 1,004 4.5 -18.1°
Drops below altitude 10° 23:01:40 10° 12° (NNE) 2,754 8.0 -18.2°
Sets 23:04:12 0° 11° (N) 3,711 9.1 -18.2°
